TimeMDT,TemperatureF,Dew PointF,Humidity,Sea Level PressureIn,VisibilityMPH,Wind Direction,Wind SpeedMPH,Gust SpeedMPH,PrecipitationIn,Events,Conditions,WindDirDegrees,DateUTC
12:48 AM,66.0,48.0,52,29.94,-9999.0,ESE,5.8,-,N/A,,Unknown,110,2013-09-02 06:48:00
1:48 AM,62.1,48.0,60,29.93,-9999.0,ENE,3.5,-,N/A,,Unknown,60,2013-09-02 07:48:00
2:48 AM,64.0,46.9,54,29.92,-9999.0,SE,3.5,-,N/A,,Unknown,130,2013-09-02 08:48:00
3:48 AM,57.9,46.9,67,29.91,-9999.0,Calm,Calm,-,N/A,,Unknown,0,2013-09-02 09:48:00
4:48 AM,52.0,46.0,80,29.91,-9999.0,West,3.5,-,N/A,,Unknown,280,2013-09-02 10:48:00
5:48 AM,50.0,45.0,83,29.92,-9999.0,Calm,Calm,-,N/A,,Unknown,0,2013-09-02 11:48:00
6:48 AM,48.9,45.0,86,29.93,-9999.0,Calm,Calm,-,N/A,,Unknown,0,2013-09-02 12:48:00
7:48 AM,55.0,46.9,74,29.94,-9999.0,Calm,Calm,-,N/A,,Unknown,0,2013-09-02 13:48:00
8:48 AM,66.0,48.0,52,29.94,-9999.0,East,3.5,-,N/A,,Unknown,100,2013-09-02 14:48:00
9:48 AM,72.0,48.9,44,29.92,-9999.0,Calm,Calm,-,N/A,,Unknown,0,2013-09-02 15:48:00
10:48 AM,79.0,48.9,35,29.91,-9999.0,ESE,4.6,-,N/A,,Unknown,110,2013-09-02 16:48:00
11:48 AM,84.0,48.9,29,29.89,-9999.0,ESE,8.1,-,N/A,,Unknown,110,2013-09-02 17:48:00
12:48 PM,90.0,48.0,24,29.86,-9999.0,ESE,10.4,-,N/A,,Unknown,120,2013-09-02 18:48:00
1:48 PM,93.9,44.1,18,29.84,-9999.0,Variable,6.9,16.1,N/A,,Unknown,0,2013-09-02 19:48:00
2:48 PM,95.0,39.9,15,29.82,-9999.0,SE,12.7,16.1,N/A,,Unknown,140,2013-09-02 20:48:00
3:48 PM,95.0,37.9,14,29.82,-9999.0,ESE,10.4,-,N/A,,Unknown,120,2013-09-02 21:48:00
4:48 PM,96.8,35.6,12,29.81,-9999.0,SE,9.2,-,N/A,,Unknown,130,2013-09-02 22:48:00
5:48 PM,93.0,39.0,15,29.83,-9999.0,SE,8.1,-,N/A,,Unknown,130,2013-09-02 23:48:00
6:48 PM,88.0,44.1,22,29.82,-9999.0,East,8.1,-,N/A,,Unknown,90,2013-09-03 00:48:00
7:48 PM,82.9,46.9,28,29.83,-9999.0,East,8.1,-,N/A,,Unknown,90,2013-09-03 01:48:00
8:48 PM,80.1,46.9,31,29.83,-9999.0,East,6.9,-,N/A,,Unknown,100,2013-09-03 02:48:00
9:48 PM,79.0,46.9,32,29.83,-9999.0,East,5.8,-,N/A,,Unknown,90,2013-09-03 03:48:00
10:48 PM,75.9,48.0,37,29.84,-9999.0,Calm,Calm,-,N/A,,Unknown,0,2013-09-03 04:48:00
11:48 PM,75.0,48.0,38,29.85,-9999.0,Calm,Calm,-,N/A,,Unknown,0,2013-09-03 05:48:00